Voltar ao catálogo

SL-16 DEB

AtivoLEO
NORAD 49050·DEBRIS·🇷🇺 Russia

Lançado Dec 25, 1992 de Baikonur Cosmodrome

Loading…

Próximas Passagens (próximas 24 horas)

TLE

AtualizadoSource: Space-Track

Época: Sep 14, 2026, 12:20 UTC

1 49050U 92093LX  26257.51420567  .00010520  00000-0  42865-2 0  9998
2 49050  71.0085 319.6909 0012205 329.1590  30.8821 14.27540599 45958

Acompanhe SL-16 DEB em tempo real com AllMySat

Download on the App Store